Location: St Paul
(33.4390°N, 83.7350°W)
Time: 08:28:21
(UTC-05:00)

SJ 16-02 - Pass Details

Date: 06 October 2017
Orbit: 607 x 617 km, 75.0° (Epoch: 10 December)

Event Time Altitude Azimuth Distance (km) Brightness Sun altitude
Rises 19:32:53 0° 339° (NNW) 2,867 5.0 -5.1°
Reaches altitude 10° 19:35:09 10° 335° (NNW) 1,959 4.2 -5.6°
Maximum altitude 19:39:25 56° 258° (WSW) 726 2.2 -6.5°
Drops below altitude 10° 19:43:40 10° 180° (S) 1,948 4.0 -7.4°
Sets 19:45:55 0° 176° (S) 2,848 4.7 -7.8°
